| time (UTC) | temp F | wind direction | speed MPH | gust MPH | rain 1hr in | rain 24hr in | rain mn in | humidity % | barometer mb |
| 20260503020504 | 48 | 0.0 | 0.0 | 0.00 | 0.00 | 0.00 | 64 | 1016.6 | |
| 20260503015504 | 48 | 0.0 | 0.0 | 0.00 | 0.00 | 0.00 | 64 | 1016.7 | |
| 20260503014504 | 48 | 0.0 | 0.0 | 0.00 | 0.00 | 0.00 | 65 | 1016.8 | |
| 20260503013504 | 48 | 0.0 | 0.0 | 0.00 | 0.00 | 0.00 | 66 | 1016.9 | |
| 20260503012504 | 48 | 0.0 | 0.0 | 0.00 | 0.00 | 0.00 | 65 | 1016.9 | |
| 20260503011504 | 49 | 0.0 | 0.0 | 0.00 | 0.00 | 0.00 | 65 | 1016.9 | |
| 20260503010504 | 49 | 0.0 | 0.0 | 0.00 | 0.00 | 0.00 | 65 | 1017.0 | |
| 20260503005503 | 49 | 0.0 | 0.0 | 0.00 | 0.00 | 0.00 | 66 | 1017.0 | |
| 20260503004503 | 49 | 0.0 | 0.0 | 0.00 | 0.00 | 0.00 | 65 | 1017.0 | |
| 20260503003505 | 49 | 0.0 | 0.0 | 0.00 | 0.00 | 0.00 | 66 | 1017.2 | |
| 20260503002503 | 50 | 0.0 | 0.0 | 0.00 | 0.00 | 0.00 | 66 | 1017.2 | |
| 20260503001503 | 50 | 0.0 | 0.0 | 0.00 | 0.00 | 0.00 | 66 | 1017.3 | |
| 20260503000503 | 50 | 0.0 | 0.0 | 0.00 | 0.00 | 0.00 | 65 | 1017.3 | |
| 20260502235504 | 50 | 0.0 | 0.0 | 0.00 | 0.00 | 0.00 | 63 | 1017.3 | |
| 20260502234503 | 50 | 0.0 | 0.0 | 0.00 | 0.00 | 0.00 | 63 | 1017.4 | |
| 20260502233504 | 51 | 0.0 | 0.0 | 0.00 | 0.00 | 0.00 | 62 | 1017.4 | |
| 20260502232505 | 51 | 0.0 | 0.0 | 0.00 | 0.00 | 0.00 | 61 | 1017.5 | |
| 20260502231503 | 51 | 0.0 | 0.0 | 0.00 | 0.00 | 0.00 | 61 | 1017.6 | |
| 20260502230503 | 51 | 0.0 | 0.0 | 0.00 | 0.00 | 0.00 | 62 | 1017.6 | |
| 20260502225503 | 51 | 0.0 | 0.0 | 0.00 | 0.00 | 0.00 | 64 | 1017.7 | |
| 20260502223504 | 52 | 0.0 | 0.0 | 0.00 | 0.00 | 0.00 | 64 | 1017.8 | |
| 20260502222503 | 52 | 0.0 | 0.0 | 0.00 | 0.00 | 0.00 | 64 | 1017.9 | |
| 20260502221503 | 53 | 0.0 | 0.0 | 0.00 | 0.00 | 0.00 | 62 | 1017.9 | |
| 20260502220503 | 53 | 0.0 | 0.0 | 0.00 | 0.00 | 0.00 | 60 | 1018.0 | |
| 20260502215503 | 54 | 0.0 | 0.0 | 0.00 | 0.00 | 0.00 | 60 | 1018.0 | |
| 20260502212503 | 54 | 0.0 | 0.0 | 0.00 | 0.00 | 0.00 | 58 | 1018.0 | |
| 20260502211503 | 55 | 0.0 | 0.0 | 0.00 | 0.00 | 0.00 | 59 | 1018.1 | |
| 20260502210503 | 55 | 0.0 | 0.0 | 0.00 | 0.00 | 0.00 | 57 | 1018.2 | |
| 20260502205503 | 56 | 0.0 | 0.0 | 0.00 | 0.00 | 0.00 | 53 | 1018.0 | |
| 20260502204503 | 56 | 0.0 | 0.0 | 0.00 | 0.00 | 0.00 | 53 | 1018.1 | |
| 20260502203503 | 56 | 0.0 | 0.0 | 0.00 | 0.00 | 0.00 | 51 | 1018.2 | |
| 20260502202503 | 57 | 0.0 | 0.0 | 0.00 | 0.00 | 0.00 | 48 | 1018.1 | |
| 20260502201503 | 58 | 0.0 | 0.0 | 0.00 | 0.00 | 0.00 | 46 | 1018.0 | |
| 20260502195503 | 59 | 0.0 | 0.0 | 0.00 | 0.00 | 0.00 | 45 | 1018.1 | |
| 20260502194503 | 60 | 0.0 | 0.0 | 0.00 | 0.00 | 0.00 | 43 | 1018.2 | |
| 20260502193503 | 60 | 0.0 | 0.0 | 0.00 | 0.00 | 0.00 | 43 | 1018.3 | |
| 20260502192505 | 61 | 0.0 | 0.0 | 0.00 | 0.00 | 0.00 | 42 | 1018.3 | |
| 20260502191503 | 61 | 0.0 | 0.0 | 0.00 | 0.00 | 0.00 | 42 | 1018.4 | |
| 20260502190504 | 62 | 0.0 | 0.0 | 0.00 | 0.00 | 0.00 | 42 | 1018.3 | |
| 20260502184503 | 63 | 0.0 | 0.0 | 0.00 | 0.00 | 0.00 | 40 | 1018.3 | |
| 20260502183503 | 64 | 0.0 | 0.0 | 0.00 | 0.00 | 0.00 | 40 | 1018.2 | |
| 20260502182503 | 64 | 0.0 | 0.0 | 0.00 | 0.00 | 0.00 | 39 | 1018.2 | |
| 20260502181503 | 65 | 0.0 | 0.0 | 0.00 | 0.00 | 0.00 | 38 | 1018.1 | |
| 20260502170503 | 72 | 0.0 | 0.0 | 0.00 | 0.00 | 0.00 | 31 | 1018.1 | |
| 20260502163502 | 73 | 0.0 | 0.0 | 0.00 | 0.00 | 0.00 | 31 | 1018.4 | |
| 20260502162502 | 73 | 0.0 | 0.0 | 0.00 | 0.00 | 0.00 | 30 | 1018.4 | |
| 20260502161503 | 74 | 0.0 | 0.0 | 0.00 | 0.00 | 0.00 | 30 | 1018.5 | |
| 20260502160502 | 74 | 0.0 | 0.0 | 0.00 | 0.00 | 0.00 | 30 | 1018.7 | |
| 20260502151502 | 76 | 0.0 | 0.0 | 0.00 | 0.00 | 0.00 | 28 | 1019.1 | |
| 20260502150503 | 76 | 0.0 | 0.0 | 0.00 | 0.00 | 0.00 | 27 | 1019.2 | |
| 20260502130504 | 78 | 0.0 | 0.0 | 0.00 | 0.00 | 0.00 | 26 | 1020.5 | |
| 20260502123504 | 78 | 0.0 | 0.0 | 0.00 | 0.00 | 0.00 | 26 | 1020.9 | |
| 20260502122503 | 78 | 0.0 | 0.0 | 0.00 | 0.00 | 0.00 | 27 | 1021.0 | |
| 20260502121503 | 78 | 0.0 | 0.0 | 0.00 | 0.00 | 0.00 | 27 | 1021.2 | |
| 20260502115503 | 77 | 0.0 | 0.0 | 0.00 | 0.00 | 0.00 | 26 | 1021.4 | |
| 20260502114503 | 77 | 0.0 | 0.0 | 0.00 | 0.00 | 0.00 | 25 | 1021.5 | |
| 20260502113505 | 78 | 0.0 | 0.0 | 0.00 | 0.00 | 0.00 | 25 | 1021.7 | |
| 20260502112503 | 78 | 0.0 | 0.0 | 0.00 | 0.00 | 0.00 | 26 | 1021.8 | |
| 20260502111503 | 78 | 0.0 | 0.0 | 0.00 | 0.00 | 0.00 | 26 | 1021.8 | |
| 20260502110503 | 79 | 0.0 | 0.0 | 0.00 | 0.00 | 0.00 | 26 | 1022.0 | |
| 20260502105503 | 78 | 0.0 | 0.0 | 0.00 | 0.00 | 0.00 | 26 | 1022.1 | |
| 20260502104505 | 77 | 0.0 | 0.0 | 0.00 | 0.00 | 0.00 | 24 | 1022.2 | |
| 20260502103504 | 78 | 0.0 | 0.0 | 0.00 | 0.00 | 0.00 | 26 | 1022.3 | |
| 20260502102505 | 78 | 0.0 | 0.0 | 0.00 | 0.00 | 0.00 | 26 | 1022.4 | |
| 20260502100504 | 77 | 0.0 | 0.0 | 0.00 | 0.00 | 0.00 | 26 | 1022.5 | |
| 20260502091503 | 75 | 0.0 | 0.0 | 0.00 | 0.00 | 0.00 | 32 | 1023.1 | |
| 20260502090503 | 73 | 0.0 | 0.0 | 0.00 | 0.00 | 0.00 | 32 | 1023.2 | |
| 20260502071505 | 66 | 0.0 | 0.0 | 0.00 | 0.00 | 0.00 | 37 | 1023.7 | |
| 20260502065503 | 65 | 0.0 | 0.0 | 0.00 | 0.00 | 0.00 | 38 | 1023.7 | |
| 20260502064504 | 64 | 0.0 | 0.0 | 0.00 | 0.00 | 0.00 | 38 | 1023.8 | |
| 20260502063503 | 63 | 0.0 | 0.0 | 0.00 | 0.00 | 0.00 | 40 | 1023.8 | |
| 20260502062503 | 62 | 0.0 | 0.0 | 0.00 | 0.00 | 0.00 | 41 | 1023.9 | |
| 20260502061503 | 61 | 0.0 | 0.0 | 0.00 | 0.00 | 0.00 | 45 | 1024.0 | |
| 20260502060504 | 60 | 0.0 | 0.0 | 0.00 | 0.00 | 0.00 | 50 | 1024.1 | |
| 20260502055503 | 58 | 0.0 | 0.0 | 0.00 | 0.00 | 0.00 | 54 | 1024.2 | |
| 20260502053503 | 55 | 0.0 | 0.0 | 0.00 | 0.00 | 0.00 | 60 | 1024.3 | |
| 20260502051508 | 51 | 0.0 | 0.0 | 0.00 | 0.00 | 0.00 | 66 | 1024.4 | |
| 20260502050503 | 49 | 0.0 | 0.0 | 0.00 | 0.00 | 0.00 | 68 | 1024.4 | |
| 20260502045503 | 47 | 0.0 | 0.0 | 0.00 | 0.00 | 0.00 | 69 | 1024.5 | |
| 20260502043503 | 45 | 0.0 | 0.0 | 0.00 | 0.00 | 0.00 | 71 | 1024.5 | |
| 20260502042504 | 44 | 0.0 | 0.0 | 0.00 | 0.00 | 0.00 | 71 | 1024.5 | |
| 20260502041503 | 43 | 0.0 | 0.0 | 0.00 | 0.00 | 0.00 | 71 | 1024.6 | |
| 20260502040503 | 43 | 0.0 | 0.0 | 0.00 | 0.00 | 0.00 | 71 | 1024.6 | |
| 20260502035503 | 42 | 0.0 | 0.0 | 0.00 | 0.00 | 0.00 | 70 | 1024.5 | |
| 20260502034502 | 42 | 0.0 | 0.0 | 0.00 | 0.00 | 0.00 | 70 | 1024.6 | |
| 20260502033502 | 42 | 0.0 | 0.0 | 0.00 | 0.00 | 0.00 | 70 | 1024.6 | |
| 20260502032503 | 42 | 0.0 | 0.0 | 0.00 | 0.00 | 0.00 | 69 | 1024.6 | |
| 20260502030504 | 42 | 0.0 | 0.0 | 0.00 | 0.00 | 0.00 | 69 | 1024.7 | |
| 20260502025503 | 43 | 0.0 | 0.0 | 0.00 | 0.00 | 0.00 | 68 | 1024.7 | |
| 20260502024504 | 43 | 0.0 | 0.0 | 0.00 | 0.00 | 0.00 | 68 | 1024.7 | |
| 20260502023502 | 43 | 0.0 | 0.0 | 0.00 | 0.00 | 0.00 | 68 | 1024.7 | |
| 20260502022503 | 43 | 0.0 | 0.0 | 0.00 | 0.00 | 0.00 | 67 | 1024.8 | |
| 20260502021504 | 44 | 0.0 | 0.0 | 0.00 | 0.00 | 0.00 | 67 | 1024.8 |